一网星座-0399星 (ONEWEB-0399 )

导读

ONEWEB-0399是英国OneWeb公司旗下低轨互联网卫星,于2021年12月27日在哈萨克斯坦拜科努尔发射场,由俄罗斯联盟2-1b火箭发射升空,属于OneWeb星座第12批组网卫星,进入倾角87.4°、约450km的极地轨道。该卫星旨在构建全球低延迟高速卫星互联网,为航空、海运、应急响应等提供连接服务,助力缩小数字鸿沟,支撑OneWeb实现全球覆盖目标。

基本信息
目录编号:
50479
目录名称:
ONEWEB-0399
国际标识:
2021-132L
轨道中心:
EARTH
卫星名称:
一网星座-0399星
卫星全名:
一网星座-0399星 (ONEWEB-0399 )
卫星状态:
在轨 (已飞行1723 天)
发射日期:
2021-12-27 UTC
国别 :
英国 (GB)
星等 :
--
该卫星已列入 空间交会检测服务 Space Conjunction Data Service (SCDS) ,当前飞行风险评估等级: 无高风险
轨道信息
数据来源 国际轨道数据
星历时间: 2026-09-15T13:27:58+0800
18小时前
查看轨道信息
半长轴: 7595.824km
偏心率: 0.0002136
轨道倾角: 87.897°
近地点辐角 110.694°
升交点赤经 3.168°
平近点角 249.442°
近地点: 1216.064km
远地点: 1219.31km
周期: 109.805分钟
每日圈数: 13.114159
详细信息
平衡模式:
三轴稳定
覆盖范围:
全球
运营商:
一网卫星公司
运营商所在国:
英国
制造商(研发单位):
一网卫星公司
制造商所在国:
英国
使用方式:
暂无
卫星简介
OneWeb卫星网络由648颗重约125公斤的微型卫星组成,运行在1200公里的轨道上。 每颗卫星都能够提供至少每秒8千兆位的吞吐量,以使用其高吞吐量的Ku频段有效载荷为家庭和移动平台提供互联网接入。该卫星仍在工作。
2D轨道图
3D轨道图
轨道高度分析图
轨道倾角分析图
轨道综合分析图
查看轨道综合分析图
与全量物体交会距离演化趋势 订阅飞行安全评估服务
与全量物体交会风险概率演化趋势 订阅飞行安全评估服务